,,PressureMeas_1m,,PRMeasQMR101_1,,RHStat155_1m_1,,SRMeasQMS101R_1m,,TAStat155_1m_1,,GenWind_1,,GenWind_1,
2018-09-02, 00:00:06,VALID,920.026,VALID,0.0,VALID,98.613,VALID,0.035,VALID,18.283,VALID,113.0,VALID,0.0,
2018-09-02, 00:01:06,VALID,920.029,VALID,0.0,VALID,98.658,VALID,0.03,VALID,18.281,VALID,114.0,VALID,0.0,
2018-09-02, 00:02:06,VALID,920.005,VALID,0.0,VALID,98.671,VALID,0.03,VALID,18.264,VALID,119.0,VALID,0.0,
2018-09-02, 00:03:06,VALID,919.995,VALID,0.0,VALID,98.706,VALID,0.032,VALID,18.251,VALID,117.0,VALID,0.0,
2018-09-02, 00:04:06,VALID,919.964,VALID,0.0,VALID,98.74,VALID,0.022,VALID,18.248,VALID,119.0,VALID,0.0,
2018-09-02, 00:05:06,VALID,919.929,VALID,0.0,VALID,98.743,VALID,0.017,VALID,18.233,VALID,114.0,VALID,0.0,
2018-09-02, 00:06:06,VALID,919.908,VALID,0.0,VALID,98.735,VALID,0.031,VALID,18.226,VALID,113.0,VALID,0.0,
2018-09-02, 00:07:06,VALID,919.861,VALID,0.0,VALID,98.697,VALID,-0.001,VALID,18.219,VALID,115.0,VALID,0.0,
2018-09-02, 00:08:06,VALID,919.839,VALID,0.0,VALID,98.676,VALID,-0.001,VALID,18.236,VALID,118.0,VALID,0.0,
2018-09-02, 00:09:06,VALID,919.814,VALID,0.0,VALID,98.615,VALID,0.002,VALID,18.232,VALID,117.0,VALID,0.0,
2018-09-02, 00:10:06,VALID,919.791,VALID,0.0,VALID,98.512,VALID,0.012,VALID,18.241,VALID,120.0,VALID,0.0,
2018-09-02, 00:11:06,VALID,919.752,VALID,0.0,VALID,98.426,VALID,0.006,VALID,18.225,VALID,121.0,VALID,0.0,
2018-09-02, 00:12:06,VALID,919.738,VALID,0.0,VALID,98.393,VALID,0.008,VALID,18.223,VALID,118.0,VALID,0.0,
2018-09-02, 00:13:06,VALID,919.734,VALID,0.0,VALID,98.327,VALID,-0.003,VALID,18.213,VALID,118.0,VALID,0.0,
2018-09-02, 00:14:06,VALID,919.739,VALID,0.0,VALID,98.31,VALID,0.002,VALID,18.212,VALID,112.0,VALID,0.0,
2018-09-02, 00:15:06,VALID,919.745,VALID,0.0,VALID,98.239,VALID,0.022,VALID,18.19,VALID,101.0,VALID,0.0,
2018-09-02, 00:16:06,VALID,919.772,VALID,0.0,VALID,98.224,VALID,0.019,VALID,18.191,VALID,92.0,VALID,0.0,
2018-09-02, 00:17:06,VALID,919.782,VALID,0.0,VALID,98.24,VALID,0.005,VALID,18.207,VALID,88.0,VALID,0.0,
2018-09-02, 00:18:06,VALID,919.809,VALID,0.0,VALID,98.196,VALID,-0.014,VALID,18.211,VALID,83.0,VALID,0.0,
2018-09-02, 00:19:06,VALID,919.843,VALID,0.0,VALID,98.205,VALID,-0.022,VALID,18.21,VALID,82.0,VALID,0.0,
2018-09-02, 00:20:06,VALID,919.852,VALID,0.0,VALID,98.201,VALID,-0.017,VALID,18.185,VALID,66.0,VALID,0.0,
2018-09-02, 00:21:06,VALID,919.862,VALID,0.0,VALID,98.244,VALID,-0.004,VALID,18.169,VALID,68.0,VALID,0.0,
2018-09-02, 00:22:06,VALID,919.877,VALID,0.0,VALID,98.288,VALID,-0.004,VALID,18.15,VALID,80.0,VALID,0.0,
2018-09-02, 00:23:06,VALID,919.887,VALID,0.0,VALID,98.364,VALID,0.001,VALID,18.134,VALID,91.0,VALID,0.0,
2018-09-02, 00:24:06,VALID,919.875,VALID,0.0,VALID,98.453,VALID,0.005,VALID,18.139,VALID,83.0,VALID,0.0,
2018-09-02, 00:25:06,VALID,919.849,VALID,0.0,VALID,98.467,VALID,-0.005,VALID,18.102,VALID,103.0,VALID,0.0,
2018-09-02, 00:26:06,VALID,919.841,VALID,0.0,VALID,98.503,VALID,0.004,VALID,18.094,VALID,102.0,VALID,0.0,
2018-09-02, 00:27:06,VALID,919.831,VALID,0.0,VALID,98.575,VALID,0.013,VALID,18.097,VALID,113.0,VALID,0.0,
2018-09-02, 00:28:06,VALID,919.808,VALID,0.0,VALID,98.613,VALID,0.015,VALID,18.094,VALID,114.0,VALID,0.0,
2018-09-02, 00:29:06,VALID,919.788,VALID,0.0,VALID,98.672,VALID,0.002,VALID,18.112,VALID,135.0,VALID,0.0,
2018-09-02, 00:30:06,VALID,919.768,VALID,0.0,VALID,98.756,VALID,0.004,VALID,18.168,VALID,130.0,VALID,0.0,
2018-09-02, 00:31:06,VALID,919.752,VALID,0.0,VALID,98.762,VALID,-0.003,VALID,18.179,VALID,136.0,VALID,0.0,
2018-09-02, 00:32:06,VALID,919.771,VALID,0.0,VALID,98.749,VALID,0.006,VALID,18.196,VALID,161.0,VALID,0.0,
2018-09-02, 00:33:06,VALID,919.757,VALID,0.0,VALID,98.745,VALID,0.007,VALID,18.217,VALID,140.0,VALID,0.0,
2018-09-02, 00:34:06,VALID,919.776,VALID,0.0,VALID,98.673,VALID,0.01,VALID,18.201,VALID,133.0,VALID,0.0,
2018-09-02, 00:35:06,VALID,919.791,VALID,0.0,VALID,98.591,VALID,-0.005,VALID,18.158,VALID,116.0,VALID,0.0,
2018-09-02, 00:36:06,VALID,919.83,VALID,0.0,VALID,98.543,VALID,-0.024,VALID,18.131,VALID,120.0,VALID,0.0,
2018-09-02, 00:37:06,VALID,919.8,VALID,0.0,VALID,98.533,VALID,0.016,VALID,18.122,VALID,123.0,VALID,0.0,
2018-09-02, 00:38:06,VALID,919.798,VALID,0.0,VALID,98.505,VALID,0.044,VALID,18.113,VALID,122.0,VALID,0.0,
2018-09-02, 00:39:06,VALID,919.787,VALID,0.0,VALID,98.52,VALID,0.037,VALID,18.121,VALID,120.0,VALID,0.0,
2018-09-02, 00:40:06,VALID,919.771,VALID,0.0,VALID,98.521,VALID,0.031,VALID,18.147,VALID,120.0,VALID,0.0,
2018-09-02, 00:41:06,VALID,919.771,VALID,0.0,VALID,98.375,VALID,0.016,VALID,18.137,VALID,117.0,VALID,0.0,
2018-09-02, 00:42:06,VALID,919.75,VALID,0.0,VALID,98.088,VALID,0.035,VALID,18.106,VALID,115.0,VALID,0.0,
2018-09-02, 00:43:06,VALID,919.726,VALID,0.0,VALID,97.876,VALID,0.013,VALID,18.118,VALID,118.0,VALID,0.0,
2018-09-02, 00:44:06,VALID,919.723,VALID,0.0,VALID,97.667,VALID,0.001,VALID,18.131,VALID,117.0,VALID,0.0,
2018-09-02, 00:45:06,VALID,919.697,VALID,0.0,VALID,97.388,VALID,0.013,VALID,18.105,VALID,113.0,VALID,0.0,
2018-09-02, 00:46:06,VALID,919.687,VALID,0.0,VALID,97.27,VALID,0.021,VALID,18.092,VALID,112.0,VALID,0.0,
2018-09-02, 00:47:06,VALID,919.631,VALID,0.0,VALID,97.236,VALID,0.025,VALID,18.064,VALID,112.0,VALID,0.0,
2018-09-02, 00:48:06,VALID,919.632,VALID,0.0,VALID,97.285,VALID,0.019,VALID,18.054,VALID,112.0,VALID,0.0,
2018-09-02, 00:49:06,VALID,919.629,VALID,0.0,VALID,97.421,VALID,0.016,VALID,18.056,VALID,112.0,VALID,0.0,
2018-09-02, 00:50:06,VALID,919.652,VALID,0.0,VALID,97.508,VALID,0.016,VALID,18.05,VALID,112.0,VALID,0.0,
2018-09-02, 00:51:06,VALID,919.647,VALID,0.0,VALID,97.547,VALID,0.024,VALID,18.027,VALID,112.0,VALID,0.0,
2018-09-02, 00:52:06,VALID,919.634,VALID,0.0,VALID,97.581,VALID,0.013,VALID,18.006,VALID,112.0,VALID,0.0,
2018-09-02, 00:53:06,VALID,919.611,VALID,0.0,VALID,97.729,VALID,0.014,VALID,18.021,VALID,95.0,VALID,0.0,
2018-09-02, 00:54:06,VALID,919.603,VALID,0.0,VALID,97.655,VALID,0.01,VALID,17.995,VALID,68.0,VALID,0.0,
2018-09-02, 00:55:06,VALID,919.586,VALID,0.0,VALID,97.676,VALID,0.006,VALID,17.938,VALID,33.0,VALID,0.0,
2018-09-02, 00:56:06,VALID,919.556,VALID,0.0,VALID,97.715,VALID,0.014,VALID,17.889,VALID,29.0,VALID,0.0,
2018-09-02, 00:57:06,VALID,919.55,VALID,0.0,VALID,97.876,VALID,0.002,VALID,17.888,VALID,30.0,VALID,0.0,
2018-09-02, 00:58:06,VALID,919.532,VALID,0.0,VALID,98.027,VALID,0.014,VALID,17.887,VALID,27.0,VALID,0.0,
2018-09-02, 00:59:06,VALID,919.532,VALID,0.0,VALID,98.183,VALID,-0.02,VALID,17.901,VALID,20.0,VALID,0.0,
2018-09-02, 01:00:06,VALID,919.519,VALID,0.0,VALID,98.238,VALID,-0.015,VALID,17.869,VALID,23.0,VALID,0.0,
2018-09-02, 01:01:06,VALID,919.516,VALID,0.0,VALID,98.297,VALID,-0.002,VALID,17.835,VALID,26.0,VALID,0.0,
2018-09-02, 01:02:06,VALID,919.513,VALID,0.0,VALID,98.396,VALID,0.001,VALID,17.821,VALID,25.0,VALID,0.0,
2018-09-02, 01:03:06,VALID,919.523,VALID,0.0,VALID,98.448,VALID,-0.001,VALID,17.798,VALID,28.0,VALID,0.0,
2018-09-02, 01:04:06,VALID,919.507,VALID,0.0,VALID,98.497,VALID,0.013,VALID,17.774,VALID,22.0,VALID,0.0,
2018-09-02, 01:05:06,VALID,919.495,VALID,0.0,VALID,98.583,VALID,0.008,VALID,17.779,VALID,29.0,VALID,0.0,
2018-09-02, 01:06:06,VALID,919.485,VALID,0.0,VALID,98.634,VALID,-0.004,VALID,17.775,VALID,28.0,VALID,0.0,
2018-09-02, 01:07:06,VALID,919.457,VALID,0.0,VALID,98.702,VALID,0.012,VALID,17.796,VALID,24.0,VALID,0.0,
2018-09-02, 01:08:06,VALID,919.445,VALID,0.0,VALID,98.733,VALID,0.021,VALID,17.794,VALID,22.0,VALID,0.0,
2018-09-02, 01:09:06,VALID,919.451,VALID,0.0,VALID,98.739,VALID,0.009,VALID,17.771,VALID,20.0,VALID,0.0,
2018-09-02, 01:10:06,VALID,919.466,VALID,0.0,VALID,98.804,VALID,0.009,VALID,17.798,VALID,27.0,VALID,0.0,
2018-09-02, 01:11:06,VALID,919.482,VALID,0.0,VALID,98.868,VALID,0.0,VALID,17.834,VALID,28.0,VALID,0.0,
2018-09-02, 01:12:06,VALID,919.496,VALID,0.0,VALID,98.833,VALID,0.008,VALID,17.815,VALID,28.0,VALID,0.0,
2018-09-02, 01:13:06,VALID,919.498,VALID,0.0,VALID,98.884,VALID,0.037,VALID,17.832,VALID,28.0,VALID,0.0,
2018-09-02, 01:14:06,VALID,919.513,VALID,0.0,VALID,98.871,VALID,0.023,VALID,17.828,VALID,29.0,VALID,0.0,
2018-09-02, 01:15:06,VALID,919.494,VALID,0.0,VALID,98.907,VALID,0.027,VALID,17.839,VALID,34.0,VALID,0.0,
2018-09-02, 01:16:06,VALID,919.497,VALID,0.0,VALID,98.845,VALID,0.028,VALID,17.751,VALID,35.0,VALID,0.0,
2018-09-02, 01:17:06,VALID,919.512,VALID,0.0,VALID,98.741,VALID,0.025,VALID,17.605,VALID,71.0,VALID,0.0,
2018-09-02, 01:18:06,VALID,919.506,VALID,0.0,VALID,98.751,VALID,0.032,VALID,17.566,VALID,122.0,VALID,0.0,
2018-09-02, 01:19:06,VALID,919.508,VALID,0.0,VALID,98.808,VALID,0.028,VALID,17.543,VALID,119.0,VALID,0.0,
2018-09-02, 01:20:06,VALID,919.505,VALID,0.0,VALID,98.674,VALID,0.044,VALID,17.439,VALID,86.0,VALID,0.0,
2018-09-02, 01:21:07,VALID,919.522,VALID,0.0,VALID,98.655,VALID,0.036,VALID,17.369,VALID,74.0,VALID,0.0,
2018-09-02, 01:22:07,VALID,919.509,VALID,0.0,VALID,98.672,VALID,-0.001,VALID,17.324,VALID,73.0,VALID,0.0,
2018-09-02, 01:23:07,VALID,919.499,VALID,0.0,VALID,98.924,VALID,0.0,VALID,17.487,VALID,90.0,VALID,0.0,
2018-09-02, 01:24:07,VALID,919.525,VALID,0.0,VALID,99.033,VALID,0.023,VALID,17.638,VALID,87.0,VALID,0.0,
2018-09-02, 01:25:07,VALID,919.498,VALID,0.0,VALID,99.069,VALID,-0.002,VALID,17.775,VALID,74.0,VALID,0.0,
2018-09-02, 01:26:07,VALID,919.519,VALID,0.0,VALID,99.082,VALID,-0.016,VALID,17.848,VALID,68.0,VALID,0.0,
2018-09-02, 01:27:07,VALID,919.472,VALID,0.0,VALID,99.07,VALID,-0.001,VALID,17.916,VALID,68.0,VALID,0.0,
2018-09-02, 01:28:07,VALID,919.444,VALID,0.0,VALID,99.144,VALID,-0.002,VALID,18.05,VALID,66.0,VALID,0.0,
2018-09-02, 01:29:07,VALID,919.413,VALID,0.0,VALID,99.061,VALID,0.018,VALID,18.048,VALID,66.0,VALID,0.0,
2018-09-02, 01:30:07,VALID,919.387,VALID,0.0,VALID,99.066,VALID,-0.013,VALID,18.052,VALID,63.0,VALID,0.0,
2018-09-02, 01:31:07,VALID,919.367,VALID,0.0,VALID,98.989,VALID,-0.007,VALID,17.975,VALID,63.0,VALID,0.0,
2018-09-02, 01:32:07,VALID,919.337,VALID,0.0,VALID,98.999,VALID,0.007,VALID,17.946,VALID,63.0,VALID,0.0,
2018-09-02, 01:33:07,VALID,919.302,VALID,0.0,VALID,98.97,VALID,0.014,VALID,17.862,VALID,63.0,VALID,0.0,
2018-09-02, 01:34:07,VALID,919.292,VALID,0.0,VALID,98.725,VALID,0.015,VALID,17.56,VALID,102.0,VALID,0.0,
2018-09-02, 01:35:07,VALID,919.275,VALID,0.0,VALID,98.794,VALID,0.01,VALID,17.564,VALID,97.0,VALID,0.0,
2018-09-02, 01:36:07,VALID,919.261,VALID,0.0,VALID,98.871,VALID,-0.003,VALID,17.569,VALID,92.0,VALID,0.0,
2018-09-02, 01:37:07,VALID,919.241,VALID,0.0,VALID,98.702,VALID,0.012,VALID,17.441,VALID,59.0,VALID,0.0,
2018-09-02, 01:38:07,VALID,919.236,VALID,0.0,VALID,99.104,VALID,0.025,VALID,17.766,VALID,47.0,VALID,0.0,
2018-09-02, 01:39:07,VALID,919.265,VALID,0.0,VALID,99.183,VALID,0.027,VALID,17.971,VALID,35.0,VALID,0.0,
2018-09-02, 01:40:07,VALID,919.253,VALID,0.0,VALID,99.064,VALID,0.021,VALID,17.982,VALID,30.0,VALID,0.0,
2018-09-02, 01:41:07,VALID,919.258,VALID,0.0,VALID,99.064,VALID,0.02,VALID,18.022,VALID,357.0,VALID,0.0,
2018-09-02, 01:42:07,VALID,919.264,VALID,0.0,VALID,99.09,VALID,0.024,VALID,18.098,VALID,335.0,VALID,0.0,
2018-09-02, 01:43:07,VALID,919.242,VALID,0.0,VALID,99.08,VALID,0.012,VALID,18.139,VALID,335.0,VALID,0.0,
2018-09-02, 01:44:07,VALID,919.229,VALID,0.0,VALID,99.046,VALID,0.008,VALID,18.118,VALID,339.0,VALID,0.0,
2018-09-02, 01:45:07,VALID,919.24,VALID,0.0,VALID,98.946,VALID,0.007,VALID,18.057,VALID,33.0,VALID,0.0,
2018-09-02, 01:46:07,VALID,919.248,VALID,0.0,VALID,99.001,VALID,0.008,VALID,18.063,VALID,46.0,VALID,0.0,
2018-09-02, 01:47:07,VALID,919.245,VALID,0.0,VALID,98.89,VALID,0.018,VALID,18.037,VALID,54.0,VALID,0.0,
2018-09-02, 01:48:07,VALID,919.255,VALID,0.0,VALID,98.92,VALID,0.039,VALID,18.054,VALID,56.0,VALID,0.0,
2018-09-02, 01:49:07,VALID,919.251,VALID,0.0,VALID,98.858,VALID,0.036,VALID,18.028,VALID,59.0,VALID,0.0,
2018-09-02, 01:50:07,VALID,919.258,VALID,0.0,VALID,98.822,VALID,0.033,VALID,18.012,VALID,59.0,VALID,0.0,
2018-09-02, 01:51:07,VALID,919.251,VALID,0.0,VALID,98.847,VALID,0.031,VALID,18.029,VALID,59.0,VALID,0.0,
2018-09-02, 01:52:07,VALID,919.239,VALID,0.0,VALID,98.653,VALID,-0.022,VALID,17.868,VALID,83.0,VALID,0.0,
2018-09-02, 01:53:07,VALID,919.228,VALID,0.0,VALID,98.595,VALID,-0.044,VALID,17.804,VALID,99.0,VALID,0.0,
2018-09-02, 01:54:07,VALID,919.231,VALID,0.0,VALID,98.72,VALID,-0.038,VALID,17.874,VALID,111.0,VALID,0.0,
2018-09-02, 01:55:07,VALID,919.208,VALID,0.0,VALID,98.778,VALID,-0.033,VALID,17.924,VALID,130.0,VALID,0.0,
2018-09-02, 01:56:07,VALID,919.188,VALID,0.0,VALID,98.753,VALID,-0.029,VALID,17.923,VALID,128.0,VALID,0.0,
2018-09-02, 01:57:07,VALID,919.165,VALID,0.0,VALID,98.804,VALID,-0.025,VALID,17.936,VALID,122.0,VALID,0.0,
2018-09-02, 01:58:07,VALID,919.162,VALID,0.0,VALID,98.754,VALID,-0.025,VALID,17.889,VALID,118.0,VALID,0.0,
2018-09-02, 01:59:07,VALID,919.15,VALID,0.0,VALID,98.692,VALID,-0.031,VALID,17.833,VALID,115.0,VALID,0.0,
2018-09-02, 02:00:07,VALID,919.151,VALID,0.0,VALID,98.722,VALID,-0.023,VALID,17.808,VALID,115.0,VALID,0.0,
2018-09-02, 02:01:07,VALID,919.15,VALID,0.0,VALID,98.754,VALID,-0.043,VALID,17.815,VALID,115.0,VALID,0.0,
2018-09-02, 02:02:07,VALID,919.106,VALID,0.0,VALID,98.819,VALID,-0.032,VALID,17.912,VALID,115.0,VALID,0.0,
2018-09-02, 02:03:07,VALID,919.102,VALID,0.0,VALID,98.857,VALID,-0.039,VALID,17.929,VALID,115.0,VALID,0.0,
2018-09-02, 02:04:07,VALID,919.088,VALID,0.0,VALID,98.776,VALID,-0.04,VALID,17.843,VALID,115.0,VALID,0.0,
2018-09-02, 02:05:07,VALID,919.117,VALID,0.0,VALID,98.708,VALID,-0.02,VALID,17.751,VALID,115.0,VALID,0.0,
2018-09-02, 02:06:07,VALID,919.107,VALID,0.0,VALID,98.687,VALID,-0.025,VALID,17.677,VALID,115.0,VALID,0.0,
2018-09-02, 02:07:07,VALID,919.112,VALID,0.0,VALID,98.754,VALID,0.011,VALID,17.67,VALID,124.0,VALID,0.0,
2018-09-02, 02:08:07,VALID,919.111,VALID,0.0,VALID,98.756,VALID,0.024,VALID,17.66,VALID,133.0,VALID,0.0,
2018-09-02, 02:09:07,VALID,919.109,VALID,0.0,VALID,98.764,VALID,0.019,VALID,17.631,VALID,124.0,VALID,0.0,
2018-09-02, 02:10:07,VALID,919.095,VALID,0.0,VALID,98.718,VALID,0.024,VALID,17.572,VALID,115.0,VALID,0.0,
2018-09-02, 02:11:07,VALID,919.098,VALID,0.0,VALID,98.756,VALID,0.032,VALID,17.562,VALID,111.0,VALID,0.0,
2018-09-02, 02:12:07,VALID,919.107,VALID,0.0,VALID,98.902,VALID,0.016,VALID,17.67,VALID,115.0,VALID,0.0,
2018-09-02, 02:13:07,VALID,919.101,VALID,0.0,VALID,98.965,VALID,0.01,VALID,17.775,VALID,116.0,VALID,0.0,
2018-09-02, 02:14:07,VALID,919.089,VALID,0.0,VALID,98.977,VALID,0.025,VALID,17.805,VALID,115.0,VALID,0.0,
2018-09-02, 02:15:07,VALID,919.072,VALID,0.0,VALID,99.018,VALID,0.025,VALID,17.858,VALID,117.0,VALID,0.0,
2018-09-02, 02:16:07,VALID,919.04,VALID,0.0,VALID,99.02,VALID,0.019,VALID,17.883,VALID,117.0,VALID,0.0,
2018-09-02, 02:17:07,VALID,919.04,VALID,0.0,VALID,98.967,VALID,0.024,VALID,17.839,VALID,109.0,VALID,0.0,
2018-09-02, 02:18:07,VALID,919.05,VALID,0.0,VALID,98.949,VALID,0.011,VALID,17.805,VALID,103.0,VALID,0.0,
2018-09-02, 02:19:07,VALID,919.031,VALID,0.0,VALID,98.961,VALID,0.016,VALID,17.791,VALID,107.0,VALID,0.0,
2018-09-02, 02:20:07,VALID,919.023,VALID,0.0,VALID,98.974,VALID,0.014,VALID,17.788,VALID,106.0,VALID,0.0,
2018-09-02, 02:21:07,VALID,919.032,VALID,0.0,VALID,98.995,VALID,0.016,VALID,17.788,VALID,117.0,VALID,0.0,
2018-09-02, 02:22:07,VALID,919.023,VALID,0.0,VALID,99.027,VALID,0.015,VALID,17.809,VALID,124.0,VALID,0.0,
2018-09-02, 02:23:07,VALID,919.028,VALID,0.0,VALID,99.02,VALID,0.018,VALID,17.8,VALID,121.0,VALID,0.0,
2018-09-02, 02:24:07,VALID,919.033,VALID,0.0,VALID,99.007,VALID,-0.002,VALID,17.792,VALID,120.0,VALID,0.0,
2018-09-02, 02:25:07,VALID,919.035,VALID,0.0,VALID,99.019,VALID,0.009,VALID,17.804,VALID,120.0,VALID,0.0,
2018-09-02, 02:26:07,VALID,919.022,VALID,0.0,VALID,99.023,VALID,0.006,VALID,17.777,VALID,119.0,VALID,0.0,
2018-09-02, 02:27:07,VALID,919.021,VALID,0.0,VALID,98.999,VALID,0.009,VALID,17.736,VALID,123.0,VALID,0.0,
2018-09-02, 02:28:07,VALID,919.016,VALID,0.0,VALID,98.983,VALID,0.001,VALID,17.734,VALID,124.0,VALID,0.0,
2018-09-02, 02:29:07,VALID,918.995,VALID,0.0,VALID,98.995,VALID,-0.0,VALID,17.714,VALID,106.0,VALID,0.0,
2018-09-02, 02:30:07,VALID,918.975,VALID,0.0,VALID,98.968,VALID,0.002,VALID,17.667,VALID,93.0,VALID,0.0,
2018-09-02, 02:31:07,VALID,918.936,VALID,0.0,VALID,99.015,VALID,0.019,VALID,17.691,VALID,105.0,VALID,0.0,
2018-09-02, 02:32:07,VALID,918.912,VALID,0.0,VALID,99.021,VALID,0.007,VALID,17.728,VALID,108.0,VALID,0.0,
2018-09-02, 02:33:07,VALID,918.882,VALID,0.0,VALID,99.051,VALID,-0.003,VALID,17.751,VALID,103.0,VALID,0.0,
2018-09-02, 02:34:07,VALID,918.852,VALID,0.0,VALID,99.027,VALID,0.007,VALID,17.755,VALID,100.0,VALID,0.0,
2018-09-02, 02:35:07,VALID,918.841,VALID,0.0,VALID,98.991,VALID,-0.011,VALID,17.729,VALID,101.0,VALID,0.0,
2018-09-02, 02:36:07,VALID,918.83,VALID,0.0,VALID,98.967,VALID,0.001,VALID,17.713,VALID,99.0,VALID,0.0,
2018-09-02, 02:37:07,VALID,918.809,VALID,0.0,VALID,98.917,VALID,0.023,VALID,17.666,VALID,102.0,VALID,0.0,
2018-09-02, 02:38:07,VALID,918.803,VALID,0.0,VALID,98.891,VALID,0.018,VALID,17.63,VALID,94.0,VALID,0.0,
2018-09-02, 02:39:07,VALID,918.796,VALID,0.0,VALID,98.908,VALID,0.016,VALID,17.634,VALID,86.0,VALID,0.0,
2018-09-02, 02:40:07,VALID,918.797,VALID,0.0,VALID,98.912,VALID,0.016,VALID,17.644,VALID,85.0,VALID,0.0,
2018-09-02, 02:41:07,VALID,918.793,VALID,0.0,VALID,98.959,VALID,0.022,VALID,17.692,VALID,88.0,VALID,0.0,
2018-09-02, 02:42:07,VALID,918.799,VALID,0.0,VALID,98.927,VALID,0.009,VALID,17.688,VALID,93.0,VALID,0.0,
2018-09-02, 02:43:07,VALID,918.814,VALID,0.0,VALID,98.924,VALID,0.0,VALID,17.706,VALID,204.0,VALID,0.0,
2018-09-02, 02:44:07,VALID,918.81,VALID,0.0,VALID,98.92,VALID,0.007,VALID,17.727,VALID,236.0,VALID,0.0,
2018-09-02, 02:45:07,VALID,918.798,VALID,0.0,VALID,98.929,VALID,-0.005,VALID,17.784,VALID,192.0,VALID,0.0,
2018-09-02, 02:46:07,VALID,918.795,VALID,0.0,VALID,98.966,VALID,0.014,VALID,17.797,VALID,70.0,VALID,0.0,
2018-09-02, 02:47:07,VALID,918.786,VALID,0.0,VALID,98.938,VALID,0.023,VALID,17.794,VALID,75.0,VALID,0.0,
2018-09-02, 02:48:07,VALID,918.773,VALID,0.0,VALID,98.809,VALID,0.002,VALID,17.707,VALID,85.0,VALID,0.0,
2018-09-02, 02:49:07,VALID,918.772,VALID,0.0,VALID,98.671,VALID,0.006,VALID,17.595,VALID,104.0,VALID,0.0,
2018-09-02, 02:50:07,VALID,918.779,VALID,0.0,VALID,98.612,VALID,-0.004,VALID,17.539,VALID,123.0,VALID,0.0,
2018-09-02, 02:51:07,VALID,918.754,VALID,0.0,VALID,98.674,VALID,-0.021,VALID,17.559,VALID,148.0,VALID,0.0,
2018-09-02, 02:52:07,VALID,918.734,VALID,0.0,VALID,98.633,VALID,0.012,VALID,17.515,VALID,151.0,VALID,0.0,
2018-09-02, 02:53:07,VALID,918.714,VALID,0.0,VALID,98.587,VALID,0.034,VALID,17.473,VALID,129.0,VALID,0.0,
2018-09-02, 02:54:07,VALID,918.705,VALID,0.0,VALID,98.666,VALID,0.03,VALID,17.473,VALID,111.0,VALID,0.0,
2018-09-02, 02:55:07,VALID,918.699,VALID,0.0,VALID,98.621,VALID,0.027,VALID,17.397,VALID,99.0,VALID,0.0,
2018-09-02, 02:56:07,VALID,918.695,VALID,0.0,VALID,98.588,VALID,0.026,VALID,17.303,VALID,91.0,VALID,0.0,
2018-09-02, 02:57:07,VALID,918.69,VALID,0.0,VALID,98.724,VALID,0.033,VALID,17.343,VALID,91.0,VALID,0.0,
2018-09-02, 02:58:07,VALID,918.682,VALID,0.0,VALID,98.858,VALID,0.02,VALID,17.422,VALID,86.0,VALID,0.0,
2018-09-02, 02:59:07,VALID,918.689,VALID,0.0,VALID,98.88,VALID,0.054,VALID,17.439,VALID,79.0,VALID,0.0,
2018-09-02, 03:00:07,VALID,918.665,VALID,0.0,VALID,98.931,VALID,0.029,VALID,17.51,VALID,84.0,VALID,0.0,
2018-09-02, 03:01:07,VALID,918.674,VALID,0.0,VALID,99.027,VALID,0.035,VALID,17.617,VALID,88.0,VALID,0.0,
2018-09-02, 03:02:07,VALID,918.664,VALID,0.0,VALID,99.048,VALID,0.051,VALID,17.68,VALID,94.0,VALID,0.0,
2018-09-02, 03:03:07,VALID,918.654,VALID,0.0,VALID,98.995,VALID,0.042,VALID,17.679,VALID,98.0,VALID,0.0,
2018-09-02, 03:04:07,VALID,918.661,VALID,0.0,VALID,99.028,VALID,0.036,VALID,17.693,VALID,98.0,VALID,0.0,
2018-09-02, 03:05:07,VALID,918.656,VALID,0.0,VALID,98.947,VALID,0.029,VALID,17.6,VALID,96.0,VALID,0.0,
2018-09-02, 03:06:07,VALID,918.665,VALID,0.0,VALID,98.909,VALID,0.052,VALID,17.546,VALID,93.0,VALID,0.0,
2018-09-02, 03:07:07,VALID,918.668,VALID,0.0,VALID,98.974,VALID,-0.013,VALID,17.584,VALID,88.0,VALID,0.0,
2018-09-02, 03:08:07,VALID,918.664,VALID,0.0,VALID,98.929,VALID,-0.014,VALID,17.551,VALID,85.0,VALID,0.0,
2018-09-02, 03:09:07,VALID,918.684,VALID,0.0,VALID,98.91,VALID,-0.022,VALID,17.555,VALID,82.0,VALID,0.0,
2018-09-02, 03:10:07,VALID,918.699,VALID,0.0,VALID,98.976,VALID,-0.007,VALID,17.653,VALID,83.0,VALID,0.0,
2018-09-02, 03:11:07,VALID,918.729,VALID,0.0,VALID,98.948,VALID,-0.02,VALID,17.664,VALID,85.0,VALID,0.0,
2018-09-02, 03:12:07,VALID,918.736,VALID,0.0,VALID,98.869,VALID,-0.019,VALID,17.637,VALID,88.0,VALID,0.0,
2018-09-02, 03:13:07,VALID,918.739,VALID,0.0,VALID,98.913,VALID,-0.025,VALID,17.705,VALID,89.0,VALID,0.0,
2018-09-02, 03:14:07,VALID,918.736,VALID,0.0,VALID,98.875,VALID,-0.021,VALID,17.715,VALID,88.0,VALID,0.0,
2018-09-02, 03:15:07,VALID,918.738,VALID,0.0,VALID,98.819,VALID,-0.002,VALID,17.712,VALID,85.0,VALID,0.0,
2018-09-02, 03:16:07,VALID,918.725,VALID,0.0,VALID,98.753,VALID,-0.005,VALID,17.694,VALID,86.0,VALID,0.0,
2018-09-02, 03:17:07,VALID,918.744,VALID,0.0,VALID,98.76,VALID,-0.012,VALID,17.695,VALID,90.0,VALID,0.0,
2018-09-02, 03:18:07,VALID,918.719,VALID,0.0,VALID,98.7,VALID,-0.013,VALID,17.661,VALID,92.0,VALID,0.0,
2018-09-02, 03:19:07,VALID,918.718,VALID,0.0,VALID,98.695,VALID,-0.015,VALID,17.652,VALID,91.0,VALID,0.0,
2018-09-02, 03:20:07,VALID,918.745,VALID,0.0,VALID,98.742,VALID,-0.01,VALID,17.685,VALID,94.0,VALID,0.0,
2018-09-02, 03:21:07,VALID,918.723,VALID,0.0,VALID,98.727,VALID,-0.014,VALID,17.704,VALID,96.0,VALID,0.0,
2018-09-02, 03:22:07,VALID,918.737,VALID,0.0,VALID,98.736,VALID,-0.014,VALID,17.715,VALID,93.0,VALID,0.0,
2018-09-02, 03:23:07,VALID,918.742,VALID,0.0,VALID,98.632,VALID,0.006,VALID,17.658,VALID,92.0,VALID,0.0,
2018-09-02, 03:24:07,VALID,918.721,VALID,0.0,VALID,98.545,VALID,0.0,VALID,17.602,VALID,87.0,VALID,0.0,
2018-09-02, 03:25:07,VALID,918.714,VALID,0.0,VALID,98.519,VALID,0.019,VALID,17.6,VALID,90.0,VALID,0.0,
2018-09-02, 03:26:07,VALID,918.686,VALID,0.0,VALID,98.61,VALID,0.001,VALID,17.656,VALID,91.0,VALID,0.0,
2018-09-02, 03:27:07,VALID,918.668,VALID,0.0,VALID,98.557,VALID,-0.007,VALID,17.672,VALID,90.0,VALID,0.0,
2018-09-02, 03:28:06,VALID,918.631,VALID,0.0,VALID,98.562,VALID,0.005,VALID,17.696,VALID,83.0,VALID,0.0,
2018-09-02, 03:29:06,VALID,918.63,VALID,0.0,VALID,98.475,VALID,-0.006,VALID,17.69,VALID,93.0,VALID,0.0,
2018-09-02, 03:30:06,VALID,918.595,VALID,0.0,VALID,98.492,VALID,-0.004,VALID,17.707,VALID,94.0,VALID,0.0,
2018-09-02, 03:31:06,VALID,918.602,VALID,0.0,VALID,98.368,VALID,0.014,VALID,17.681,VALID,94.0,VALID,0.0,
2018-09-02, 03:32:06,VALID,918.594,VALID,0.0,VALID,98.389,VALID,0.01,VALID,17.691,VALID,94.0,VALID,0.0,
2018-09-02, 03:33:06,VALID,918.575,VALID,0.0,VALID,98.346,VALID,0.002,VALID,17.679,VALID,88.0,VALID,0.0,
2018-09-02, 03:34:06,VALID,918.569,VALID,0.0,VALID,98.317,VALID,-0.0,VALID,17.685,VALID,88.0,VALID,0.0,
2018-09-02, 03:35:06,VALID,918.552,VALID,0.0,VALID,98.284,VALID,-0.012,VALID,17.673,VALID,92.0,VALID,0.0,
2018-09-02, 03:36:06,VALID,918.553,VALID,0.0,VALID,98.326,VALID,-0.002,VALID,17.684,VALID,92.0,VALID,0.0,
2018-09-02, 03:37:06,VALID,918.518,VALID,0.0,VALID,98.189,VALID,0.006,VALID,17.625,VALID,93.0,VALID,0.0,
2018-09-02, 03:38:06,VALID,918.528,VALID,0.0,VALID,98.19,VALID,0.005,VALID,17.621,VALID,104.0,VALID,0.0,
2018-09-02, 03:39:06,VALID,918.509,VALID,0.0,VALID,98.223,VALID,0.029,VALID,17.611,VALID,110.0,VALID,0.0,
2018-09-02, 03:40:06,VALID,918.504,VALID,0.0,VALID,98.183,VALID,0.028,VALID,17.591,VALID,111.0,VALID,0.0,
2018-09-02, 03:41:06,VALID,918.503,VALID,0.0,VALID,98.308,VALID,0.02,VALID,17.638,VALID,105.0,VALID,0.0,
2018-09-02, 03:42:06,VALID,918.508,VALID,0.0,VALID,98.253,VALID,0.041,VALID,17.597,VALID,102.0,VALID,0.0,
2018-09-02, 03:43:06,VALID,918.513,VALID,0.0,VALID,98.173,VALID,0.01,VALID,17.545,VALID,101.0,VALID,0.0,